Tracking 30101 objects as of 14-Dec-2024
HD Live streaming from Space Station
objects crossing your sky now

STARLINK-2147

Track STARLINK-2147 now!
10-day predictions
STARLINK-2147 is classified as:


NORAD ID: 47736
Int'l Code: 2021-017Q
Perigee: 553.4 km
Apogee: 555.3 km
Inclination: 53.1 °
Period: 95.6 minutes
Semi major axis: 6925 km
RCS: Unknown
Launch date: March 4, 2021
Source: United States (US)
Launch site: AIR FORCE EASTERN TEST RANGE (AFETR)
Your satellite tracking list
Your tracking list is empty




NASA's NSSDC Master Catalog

Two Line Element Set (TLE):
1 47736U 21017Q   24349.47899342  .00015438  00000-0  10526-2 0  9993
2 47736  53.0553  62.6929 0001373  86.3484 273.7662 15.06414262209387
Source of the keplerian elements: AFSPC